Time,TemperatureF,DewpointF,PressureIn,WindDirection,WindDirectionDegrees,WindSpeedMPH,WindSpeedGustMPH,Humidity,HourlyPrecipIn,Conditions,Clouds,dailyrainin,SoftwareType,DateUTC
2013-02-27 00:00:00,37.5,30.9,30.16,ENE,59,4.4,7.0,77,0.00,CLR,,0.01,WeatherDisplay:10.37,2013-02-27 05:00:00,
2013-02-27 00:02:00,37.5,31.3,30.16,ENE,78,0.6,3.0,78,0.00,RA,,0.00,WeatherDisplay:10.37,2013-02-27 05:02:00,
2013-02-27 00:04:00,37.5,31.3,30.16,East,81,3.0,5.0,78,0.00,RA,,0.00,WeatherDisplay:10.37,2013-02-27 05:04:00,
2013-02-27 00:09:00,37.5,31.3,30.16,East,91,2.7,4.6,78,0.00,RA,,0.00,WeatherDisplay:10.37,2013-02-27 05:09:00,
2013-02-27 00:14:00,37.5,31.6,30.15,East,79,3.9,10.0,79,0.00,CLR,,0.00,WeatherDisplay:10.37,2013-02-27 05:14:00,
2013-02-27 00:19:00,37.6,31.7,30.15,ESE,107,2.4,10.4,79,0.00,CLR,,0.00,WeatherDisplay:10.37,2013-02-27 05:19:00,
2013-02-27 00:25:00,37.6,31.7,30.16,East,88,2.0,4.6,79,0.00,CLR,,0.00,WeatherDisplay:10.37,2013-02-27 05:25:00,
2013-02-27 00:30:00,37.7,32.1,30.15,ENE,63,2.0,8.0,80,0.00,CLR,CLR,0.00,WeatherDisplay:10.37,2013-02-27 05:30:00,
2013-02-27 00:35:00,37.7,32.1,30.15,NE,37,4.0,6.9,80,0.00,CLR,,0.00,WeatherDisplay:10.37,2013-02-27 05:35:00,
2013-02-27 00:40:00,37.7,32.4,30.15,ESE,105,0.3,3.5,81,0.00,CLR,,0.00,WeatherDisplay:10.37,2013-02-27 05:40:00,
2013-02-27 00:46:00,37.8,32.5,30.14,East,80,2.0,8.1,81,0.00,CLR,,0.00,WeatherDisplay:10.37,2013-02-27 05:46:00,
2013-02-27 00:51:00,37.8,32.8,30.14,ENE,63,2.5,4.6,82,0.00,CLR,,0.00,WeatherDisplay:10.37,2013-02-27 05:51:00,
2013-02-27 00:56:00,37.9,32.9,30.14,NE,41,2.4,4.6,82,0.00,CLR,,0.00,WeatherDisplay:10.37,2013-02-27 05:56:00,
2013-02-27 01:01:00,37.9,32.9,30.14,ENE,71,3.6,8.1,82,0.00,CLR,,0.00,WeatherDisplay:10.37,2013-02-27 06:01:00,
2013-02-27 01:06:00,38.0,33.3,30.12,East,88,4.3,8.1,83,0.00,CLR,,0.00,WeatherDisplay:10.37,2013-02-27 06:06:00,
2013-02-27 01:12:00,38.1,33.4,30.13,ESE,106,1.8,3.5,83,0.00,CLR,,0.00,WeatherDisplay:10.37,2013-02-27 06:12:00,
2013-02-27 01:17:00,38.1,33.4,30.13,SE,124,4.4,6.9,83,0.00,CLR,,0.00,WeatherDisplay:10.37,2013-02-27 06:17:00,
2013-02-27 01:22:00,38.2,33.8,30.12,NE,55,3.4,7.0,84,0.00,CLR,,0.00,WeatherDisplay:10.37,2013-02-27 06:22:00,
2013-02-27 01:27:00,38.2,33.8,30.12,East,89,5.6,11.5,84,0.00,CLR,,0.00,WeatherDisplay:10.37,2013-02-27 06:27:00,
2013-02-27 01:32:00,38.3,33.9,30.11,NE,39,4.5,6.9,84,0.00,CLR,,0.00,WeatherDisplay:10.37,2013-02-27 06:32:00,
2013-02-27 01:37:00,38.3,33.9,30.11,East,99,5.1,6.9,84,0.00,CLR,,0.00,WeatherDisplay:10.37,2013-02-27 06:37:00,
2013-02-27 01:43:00,38.3,33.9,30.11,NNE,33,3.2,8.1,84,0.00,CLR,,0.00,WeatherDisplay:10.37,2013-02-27 06:43:00,
2013-02-27 01:48:00,38.3,34.2,30.10,ESE,102,5.5,9.2,85,0.00,CLR,,0.00,WeatherDisplay:10.37,2013-02-27 06:48:00,
2013-02-27 01:53:00,38.4,34.3,30.10,NE,55,7.5,13.0,85,0.00,CLR,,0.00,WeatherDisplay:10.37,2013-02-27 06:53:00,
2013-02-27 01:58:00,38.4,34.3,30.10,East,92,6.3,11.5,85,0.00,CLR,,0.00,WeatherDisplay:10.37,2013-02-27 06:58:00,
2013-02-27 02:03:00,38.5,34.1,30.10,NNE,23,3.8,11.5,84,0.00,CLR,,0.00,WeatherDisplay:10.37,2013-02-27 07:03:00,
2013-02-27 02:09:00,38.5,34.4,30.08,NE,46,2.6,15.0,85,0.00,CLR,,0.00,WeatherDisplay:10.37,2013-02-27 07:09:00,
2013-02-27 02:14:00,38.5,34.4,30.08,East,79,4.9,11.5,85,0.00,CLR,,0.00,WeatherDisplay:10.37,2013-02-27 07:14:00,
2013-02-27 02:19:00,38.6,34.5,30.09,East,98,4.6,8.1,85,0.00,CLR,,0.00,WeatherDisplay:10.37,2013-02-27 07:19:00,
2013-02-27 02:24:00,38.6,34.8,30.08,ENE,64,3.7,8.0,86,0.00,CLR,,0.00,WeatherDisplay:10.37,2013-02-27 07:24:00,
2013-02-27 02:29:00,38.6,34.5,30.08,ESE,102,2.7,6.9,85,0.00,CLR,,0.00,WeatherDisplay:10.37,2013-02-27 07:29:00,
2013-02-27 02:35:00,38.6,34.5,30.08,East,100,4.7,11.5,85,0.00,CLR,,0.00,WeatherDisplay:10.37,2013-02-27 07:35:00,
2013-02-27 02:40:00,38.6,34.5,30.08,ENE,78,3.0,9.0,85,0.00,CLR,CLR,0.00,WeatherDisplay:10.37,2013-02-27 07:40:00,
2013-02-27 02:45:00,38.7,34.9,30.08,East,79,6.0,12.0,86,0.00,CLR,CLR,0.00,WeatherDisplay:10.37,2013-02-27 07:45:00,
2013-02-27 02:50:00,38.7,34.6,30.08,ENE,75,5.0,12.0,85,0.00,CLR,CLR,0.00,WeatherDisplay:10.37,2013-02-27 07:50:00,
2013-02-27 02:55:00,38.8,34.6,30.07,ENE,70,3.0,20.0,85,0.00,CLR,CLR,0.00,WeatherDisplay:10.37,2013-02-27 07:55:00,
2013-02-27 03:00:00,38.8,34.7,30.07,East,100,6.0,16.1,85,0.00,CLR,,0.00,WeatherDisplay:10.37,2013-02-27 08:00:00,
2013-02-27 03:05:00,38.7,34.9,30.07,ENE,69,2.8,9.2,86,0.00,CLR,,0.00,WeatherDisplay:10.37,2013-02-27 08:05:00,
2013-02-27 03:10:00,38.6,35.1,30.07,ENE,65,5.5,13.8,87,0.00,CLR,,0.00,WeatherDisplay:10.37,2013-02-27 08:10:00,
2013-02-27 03:16:00,38.4,35.4,30.07,ENE,78,10.6,20.7,89,0.00,CLR,,0.00,WeatherDisplay:10.37,2013-02-27 08:16:00,
2013-02-27 03:21:00,38.3,35.6,30.07,ENE,71,3.4,9.0,90,0.00,CLR,,0.00,WeatherDisplay:10.37,2013-02-27 08:21:00,
2013-02-27 03:26:00,38.1,35.7,30.07,East,84,4.3,9.2,91,0.00,CLR,,0.00,WeatherDisplay:10.37,2013-02-27 08:26:00,
2013-02-27 03:31:00,38.0,35.9,30.07,ENE,77,3.8,8.1,92,0.01,RA,,0.01,WeatherDisplay:10.37,2013-02-27 08:31:00,
2013-02-27 03:37:00,37.9,35.8,30.07,ESE,114,3.4,6.9,92,0.01,RA,,0.01,WeatherDisplay:10.37,2013-02-27 08:37:00,
2013-02-27 03:42:00,37.8,36.0,30.07,ENE,77,5.0,10.4,93,0.01,,,0.01,WeatherDisplay:10.37,2013-02-27 08:42:00,
2013-02-27 03:47:00,37.7,35.9,30.07,NNE,25,4.8,8.1,93,0.02,RA,,0.02,WeatherDisplay:10.37,2013-02-27 08:47:00,
2013-02-27 03:52:00,37.7,36.1,30.06,ENE,78,5.7,9.2,94,0.02,RA,,0.02,WeatherDisplay:10.37,2013-02-27 08:52:00,
2013-02-27 03:58:00,37.7,36.4,30.04,NNE,29,4.7,11.5,95,0.02,CLR,,0.03,WeatherDisplay:10.37,2013-02-27 08:58:00,
2013-02-27 04:03:00,37.6,36.6,30.04,North,1,4.0,8.1,96,0.03,RA,,0.03,WeatherDisplay:10.37,2013-02-27 09:03:00,
2013-02-27 04:08:00,37.6,37.1,30.06,NE,52,2.1,4.0,98,0.04,RA,,0.04,WeatherDisplay:10.37,2013-02-27 09:08:00,
2013-02-27 04:13:00,37.6,37.3,30.06,NNE,26,3.4,6.0,99,0.04,RA,,0.04,WeatherDisplay:10.37,2013-02-27 09:13:00,
2013-02-27 04:18:00,37.7,37.7,30.06,NNE,16,3.1,3.5,100,0.04,CLR,,0.04,WeatherDisplay:10.37,2013-02-27 09:18:00,
2013-02-27 04:24:00,37.7,37.7,30.06,NNE,31,1.6,5.8,100,0.06,RA,,0.06,WeatherDisplay:10.37,2013-02-27 09:24:00,
2013-02-27 04:29:00,37.8,37.8,30.06,NNE,16,2.3,5.0,100,0.07,RA,,0.07,WeatherDisplay:10.37,2013-02-27 09:29:00,
2013-02-27 04:34:00,37.8,37.8,30.05,NNE,14,4.1,8.0,100,0.07,RA,,0.08,WeatherDisplay:10.37,2013-02-27 09:34:00,
2013-02-27 04:39:00,37.8,37.8,30.05,NNE,31,2.4,3.5,100,0.09,RA,,0.11,WeatherDisplay:10.37,2013-02-27 09:39:00,
2013-02-27 04:45:00,37.9,37.9,30.04,East,84,5.9,9.2,100,0.11,RA,,0.13,WeatherDisplay:10.37,2013-02-27 09:45:00,
2013-02-27 04:50:00,37.9,37.9,30.04,NE,48,3.0,9.0,100,0.00,RA,RA,0.14,WeatherDisplay:10.37,2013-02-27 09:50:00,
2013-02-27 04:55:00,38.0,38.0,30.04,NE,49,3.0,8.0,100,0.00,RA,RA,0.14,WeatherDisplay:10.37,2013-02-27 09:55:00,
2013-02-27 05:00:00,38.0,38.0,30.03,NE,56,5.5,9.0,100,0.12,RA,,0.15,WeatherDisplay:10.37,2013-02-27 10:00:00,
2013-02-27 05:05:00,38.1,38.1,30.03,NE,55,5.0,10.0,100,0.00,RA,RA,0.16,WeatherDisplay:10.37,2013-02-27 10:05:00,
2013-02-27 05:10:00,38.2,38.2,30.03,NE,51,6.0,12.0,100,0.00,RA,RA,0.16,WeatherDisplay:10.37,2013-02-27 10:10:00,
2013-02-27 05:15:00,38.3,38.3,30.02,NE,40,5.4,11.5,100,0.13,RA,,0.18,WeatherDisplay:10.37,2013-02-27 10:15:00,
2013-02-27 05:20:00,38.4,38.4,30.02,ENE,70,4.9,11.5,100,0.14,RA,,0.18,WeatherDisplay:10.37,2013-02-27 10:20:00,
2013-02-27 05:25:00,38.5,38.5,30.01,NE,42,4.9,13.8,100,0.13,RA,,0.19,WeatherDisplay:10.37,2013-02-27 10:25:00,
2013-02-27 05:30:00,38.6,38.6,30.01,ENE,65,4.4,11.0,100,0.12,RA,,0.19,WeatherDisplay:10.37,2013-02-27 10:30:00,
2013-02-27 05:36:00,38.7,38.7,30.01,ENE,61,8.1,17.3,100,0.11,RA,,0.20,WeatherDisplay:10.37,2013-02-27 10:36:00,
2013-02-27 05:41:00,38.9,38.9,30.01,NE,35,7.8,13.8,100,0.09,RA,,0.20,WeatherDisplay:10.37,2013-02-27 10:41:00,
2013-02-27 05:46:00,39.0,39.0,30.00,ENE,76,3.8,8.1,100,0.07,CLR,,0.20,WeatherDisplay:10.37,2013-02-27 10:46:00,
2013-02-27 05:51:00,39.0,39.0,30.00,ENE,65,6.4,17.3,100,0.06,CLR,,0.20,WeatherDisplay:10.37,2013-02-27 10:51:00,
2013-02-27 05:56:00,39.1,39.1,30.00,ENE,63,3.3,8.0,100,0.07,RA,,0.21,WeatherDisplay:10.37,2013-02-27 10:56:00,
2013-02-27 06:02:00,39.2,39.2,29.99,ESE,120,4.6,11.5,100,0.06,RA,,0.21,WeatherDisplay:10.37,2013-02-27 11:02:00,
2013-02-27 06:07:00,39.2,39.2,29.99,ENE,72,5.5,16.0,100,0.05,,,0.21,WeatherDisplay:10.37,2013-02-27 11:07:00,
2013-02-27 06:12:00,39.3,39.3,29.99,East,99,5.8,12.7,100,0.05,RA,,0.22,WeatherDisplay:10.37,2013-02-27 11:12:00,
2013-02-27 06:17:00,39.3,39.3,29.99,East,79,5.0,11.5,100,0.04,RA,,0.22,WeatherDisplay:10.37,2013-02-27 11:17:00,
2013-02-27 06:23:00,39.4,39.4,29.98,ENE,74,9.2,11.5,100,0.03,CLR,,0.22,WeatherDisplay:10.37,2013-02-27 11:23:00,
2013-02-27 06:28:00,39.4,39.4,29.98,NE,42,3.0,8.1,100,0.03,CLR,,0.22,WeatherDisplay:10.37,2013-02-27 11:28:00,
2013-02-27 06:33:00,39.4,39.4,29.98,ENE,57,5.8,13.0,100,0.02,CLR,,0.22,WeatherDisplay:10.37,2013-02-27 11:33:00,
2013-02-27 06:38:00,39.4,39.4,29.98,NE,52,5.5,10.4,100,0.03,RA,,0.23,WeatherDisplay:10.37,2013-02-27 11:38:00,
2013-02-27 06:43:00,39.5,39.5,29.97,NNE,23,7.8,11.5,100,0.03,RA,,0.24,WeatherDisplay:10.37,2013-02-27 11:43:00,
2013-02-27 06:49:00,39.5,39.5,29.97,NNE,28,8.4,17.3,100,0.04,RA,,0.24,WeatherDisplay:10.37,2013-02-27 11:49:00,
2013-02-27 06:54:00,39.5,39.5,29.96,SSE,151,6.0,12.0,100,0.04,,,0.24,WeatherDisplay:10.37,2013-02-27 11:54:00,
2013-02-27 06:59:00,39.5,39.5,29.96,ENE,57,5.6,11.5,100,0.04,RA,,0.25,WeatherDisplay:10.37,2013-02-27 11:59:00,
2013-02-27 07:04:00,39.5,39.5,29.96,NE,52,6.6,10.4,100,0.04,RA,,0.25,WeatherDisplay:10.37,2013-02-27 12:04:00,
2013-02-27 07:09:00,39.6,39.6,29.96,East,81,5.7,17.0,100,0.04,CLR,,0.25,WeatherDisplay:10.37,2013-02-27 12:09:00,
2013-02-27 07:15:00,39.6,39.6,29.95,ENE,65,8.0,16.0,100,0.00,CLR,CLR,0.25,WeatherDisplay:10.37,2013-02-27 12:15:00,
2013-02-27 07:20:00,39.6,39.6,29.95,ENE,64,7.0,15.0,100,0.00,RA,RA,0.26,WeatherDisplay:10.37,2013-02-27 12:20:00,
2013-02-27 07:25:00,39.6,39.6,29.95,ENE,62,7.9,14.0,100,0.04,RA,,0.26,WeatherDisplay:10.37,2013-02-27 12:25:00,
2013-02-27 07:30:00,39.6,39.6,29.95,SE,127,4.2,13.8,100,0.04,CLR,,0.26,WeatherDisplay:10.37,2013-02-27 12:30:00,
2013-02-27 07:35:00,39.6,39.6,29.95,ENE,70,6.6,10.4,100,0.04,CLR,,0.26,WeatherDisplay:10.37,2013-02-27 12:35:00,
2013-02-27 07:40:00,39.6,39.6,29.95,NE,55,4.8,10.4,100,0.04,RA,,0.27,WeatherDisplay:10.37,2013-02-27 12:40:00,
2013-02-27 07:46:00,39.6,39.6,29.94,NE,53,4.1,9.2,100,0.04,RA,,0.28,WeatherDisplay:10.37,2013-02-27 12:46:00,
2013-02-27 07:51:00,39.6,39.6,29.93,NNE,23,6.4,11.5,100,0.04,RA,,0.28,WeatherDisplay:10.37,2013-02-27 12:51:00,
2013-02-27 07:56:00,39.7,39.7,29.93,East,97,9.7,17.3,100,0.04,RA,,0.29,WeatherDisplay:10.37,2013-02-27 12:56:00,
2013-02-27 08:01:00,39.7,39.7,29.93,East,82,7.1,15.0,100,0.04,RA,,0.29,WeatherDisplay:10.37,2013-02-27 13:01:00,
2013-02-27 08:06:00,39.7,39.7,29.93,ESE,104,4.9,8.1,100,0.05,RA,,0.30,WeatherDisplay:10.37,2013-02-27 13:06:00,
2013-02-27 08:11:00,39.7,39.7,29.93,East,92,7.8,15.0,100,0.05,RA,,0.30,WeatherDisplay:10.37,2013-02-27 13:11:00,
2013-02-27 08:16:00,39.8,39.8,29.93,East,89,3.9,15.0,100,0.05,CLR,,0.30,WeatherDisplay:10.37,2013-02-27 13:16:00,
2013-02-27 08:22:00,39.9,39.9,29.92,East,89,7.3,16.1,100,0.05,RA,,0.31,WeatherDisplay:10.37,2013-02-27 13:22:00,
2013-02-27 08:27:00,39.9,39.9,29.92,East,99,5.8,10.4,100,0.05,RA,,0.31,WeatherDisplay:10.37,2013-02-27 13:27:00,
2013-02-27 08:32:00,39.9,39.9,29.92,ENE,78,5.8,11.5,100,0.06,RA,,0.32,WeatherDisplay:10.37,2013-02-27 13:32:00,
2013-02-27 08:37:00,39.9,39.9,29.92,East,83,7.1,13.8,100,0.06,RA,,0.32,WeatherDisplay:10.37,2013-02-27 13:37:00,
2013-02-27 08:42:00,39.9,39.9,29.92,ENE,70,7.5,18.4,100,0.05,CLR,,0.32,WeatherDisplay:10.37,2013-02-27 13:42:00,
2013-02-27 08:48:00,39.9,39.9,29.92,East,81,4.5,15.0,100,0.05,RA,,0.33,WeatherDisplay:10.37,2013-02-27 13:48:00,
2013-02-27 08:53:00,39.9,39.9,29.92,ENE,61,6.6,11.5,100,0.05,RA,,0.33,WeatherDisplay:10.37,2013-02-27 13:53:00,
2013-02-27 08:58:00,40.0,40.0,29.91,East,84,6.2,11.0,100,0.05,RA,,0.34,WeatherDisplay:10.37,2013-02-27 13:58:00,
2013-02-27 09:03:00,40.0,40.0,29.91,ESE,123,6.4,15.0,100,0.04,RA,,0.35,WeatherDisplay:10.37,2013-02-27 14:03:00,
2013-02-27 09:09:00,40.0,40.0,29.90,East,88,11.2,21.0,100,0.05,RA,,0.35,WeatherDisplay:10.37,2013-02-27 14:09:00,
2013-02-27 09:14:00,40.1,40.1,29.89,ENE,70,7.0,22.0,100,0.06,RA,,0.36,WeatherDisplay:10.37,2013-02-27 14:14:00,
2013-02-27 09:19:00,40.2,40.2,29.89,East,94,7.3,16.1,100,0.08,RA,,0.38,WeatherDisplay:10.37,2013-02-27 14:19:00,
2013-02-27 09:24:00,40.3,40.3,29.89,East,89,9.6,16.0,100,0.07,RA,,0.38,WeatherDisplay:10.37,2013-02-27 14:24:00,
2013-02-27 09:30:00,40.3,40.3,29.90,East,88,4.7,9.2,100,0.08,RA,,0.39,WeatherDisplay:10.37,2013-02-27 14:30:00,
2013-02-27 09:35:00,40.4,40.4,29.90,ENE,66,7.1,11.5,100,0.07,RA,,0.39,WeatherDisplay:10.37,2013-02-27 14:35:00,
2013-02-27 09:40:00,40.3,40.3,29.90,East,84,6.0,16.0,100,0.00,,,0.39,WeatherDisplay:10.37,2013-02-27 14:40:00,
2013-02-27 09:45:00,40.3,40.3,29.89,ENE,58,10.7,18.4,100,0.07,CLR,,0.39,WeatherDisplay:10.37,2013-02-27 14:45:00,
2013-02-27 09:50:00,40.4,40.4,29.89,East,93,7.3,15.0,100,0.07,RA,,0.40,WeatherDisplay:10.37,2013-02-27 14:50:00,
2013-02-27 09:55:00,40.4,40.4,29.89,East,90,7.9,16.1,100,0.07,RA,,0.41,WeatherDisplay:10.37,2013-02-27 14:55:00,
2013-02-27 10:00:00,40.4,40.4,29.89,North,11,7.7,13.8,100,0.08,RA,,0.42,WeatherDisplay:10.37,2013-02-27 15:00:00,
2013-02-27 10:05:00,40.4,40.4,29.88,NE,54,10.7,16.1,100,0.07,RA,,0.42,WeatherDisplay:10.37,2013-02-27 15:05:00,
2013-02-27 10:11:00,40.4,40.4,29.88,ESE,114,9.6,16.1,100,0.08,RA,,0.43,WeatherDisplay:10.37,2013-02-27 15:11:00,
2013-02-27 10:16:00,40.4,40.4,29.88,East,90,4.5,19.6,100,0.07,RA,,0.43,WeatherDisplay:10.37,2013-02-27 15:16:00,
2013-02-27 10:21:00,40.4,40.4,29.87,ESE,116,7.7,17.0,100,0.06,RA,,0.44,WeatherDisplay:10.37,2013-02-27 15:21:00,
2013-02-27 10:27:00,40.5,40.5,29.87,East,84,9.1,15.0,100,0.06,RA,,0.44,WeatherDisplay:10.37,2013-02-27 15:27:00,
2013-02-27 10:32:00,40.4,40.4,29.86,East,89,5.3,9.0,100,0.05,CLR,,0.44,WeatherDisplay:10.37,2013-02-27 15:32:00,
2013-02-27 10:37:00,40.5,40.5,29.86,ENE,75,8.9,15.0,100,0.05,CLR,,0.44,WeatherDisplay:10.37,2013-02-27 15:37:00,
2013-02-27 10:42:00,40.7,40.7,29.85,ESE,108,10.9,17.3,100,0.05,CLR,,0.44,WeatherDisplay:10.37,2013-02-27 15:42:00,
2013-02-27 10:48:00,40.8,40.8,29.85,NE,55,8.2,15.0,100,0.05,RA,,0.45,WeatherDisplay:10.37,2013-02-27 15:48:00,
2013-02-27 10:53:00,40.8,40.8,29.85,East,88,7.5,20.7,100,0.04,RA,,0.45,WeatherDisplay:10.37,2013-02-27 15:53:00,
2013-02-27 10:58:00,40.8,40.8,29.85,East,86,7.4,14.0,100,0.03,CLR,,0.45,WeatherDisplay:10.37,2013-02-27 15:58:00,
2013-02-27 11:03:00,40.9,40.9,29.85,East,93,6.2,9.2,100,0.03,CLR,,0.45,WeatherDisplay:10.37,2013-02-27 16:03:00,
2013-02-27 11:09:00,40.9,40.9,29.84,ENE,78,11.8,16.1,100,0.02,CLR,,0.46,WeatherDisplay:10.37,2013-02-27 16:09:00,
2013-02-27 11:14:00,40.8,40.8,29.84,East,79,7.1,17.3,100,0.03,RA,,0.46,WeatherDisplay:10.37,2013-02-27 16:14:00,
2013-02-27 11:19:00,40.7,40.7,29.84,SE,127,12.2,27.6,100,0.02,,,0.46,WeatherDisplay:10.37,2013-02-27 16:19:00,
2013-02-27 11:24:00,40.7,40.7,29.84,NE,39,7.5,13.8,100,0.02,CLR,,0.46,WeatherDisplay:10.37,2013-02-27 16:24:00,
2013-02-27 11:29:00,40.7,40.7,29.83,ESE,112,8.5,16.1,100,0.02,CLR,,0.46,WeatherDisplay:10.37,2013-02-27 16:29:00,
2013-02-27 11:34:00,40.7,40.7,29.83,East,97,6.9,15.0,100,0.02,CLR,,0.46,WeatherDisplay:10.37,2013-02-27 16:34:00,
2013-02-27 11:40:00,40.7,40.7,29.83,East,101,8.8,12.0,100,0.02,CLR,,0.46,WeatherDisplay:10.37,2013-02-27 16:40:00,
2013-02-27 11:45:00,40.8,40.8,29.82,East,85,8.0,18.0,100,0.00,CLR,CLR,0.46,WeatherDisplay:10.37,2013-02-27 16:45:00,
2013-02-27 11:50:00,40.8,40.8,29.81,East,84,6.0,18.0,100,0.00,CLR,CLR,0.46,WeatherDisplay:10.37,2013-02-27 16:50:00,
2013-02-27 11:55:00,41.0,41.0,29.80,ENE,75,9.6,16.1,100,0.02,RA,,0.47,WeatherDisplay:10.37,2013-02-27 16:55:00,
2013-02-27 12:00:00,41.0,41.0,29.80,East,79,5.7,13.8,100,0.02,RA,,0.47,WeatherDisplay:10.37,2013-02-27 17:00:00,
2013-02-27 12:05:00,40.9,40.9,29.80,East,83,11.8,24.0,100,0.02,CLR,,0.47,WeatherDisplay:10.37,2013-02-27 17:05:00,
2013-02-27 12:11:00,40.8,40.8,29.80,ESE,106,12.2,25.3,100,0.01,CLR,,0.47,WeatherDisplay:10.37,2013-02-27 17:11:00,
2013-02-27 12:16:00,40.6,40.6,29.80,ENE,67,8.1,14.0,100,0.01,CLR,,0.47,WeatherDisplay:10.37,2013-02-27 17:16:00,
2013-02-27 12:21:00,40.5,40.5,29.80,East,90,8.3,17.3,100,0.01,CLR,,0.47,WeatherDisplay:10.37,2013-02-27 17:21:00,
2013-02-27 12:26:00,40.5,40.5,29.80,East,91,7.3,17.3,100,0.02,RA,,0.48,WeatherDisplay:10.37,2013-02-27 17:26:00,
2013-02-27 12:32:00,40.5,40.5,29.79,ESE,116,3.8,12.7,100,0.02,RA,,0.48,WeatherDisplay:10.37,2013-02-27 17:32:00,
2013-02-27 12:37:00,40.4,40.4,29.78,East,99,9.9,23.0,100,0.02,CLR,,0.48,WeatherDisplay:10.37,2013-02-27 17:37:00,
2013-02-27 12:42:00,40.4,40.4,29.78,East,80,5.8,10.4,100,0.02,CLR,,0.48,WeatherDisplay:10.37,2013-02-27 17:42:00,
2013-02-27 12:47:00,40.4,40.4,29.78,NE,56,8.9,15.0,100,0.02,CLR,,0.48,WeatherDisplay:10.37,2013-02-27 17:47:00,
2013-02-27 12:52:00,40.4,40.4,29.78,ESE,113,8.8,20.0,100,0.01,CLR,,0.48,WeatherDisplay:10.37,2013-02-27 17:52:00,
2013-02-27 12:58:00,40.4,40.4,29.78,NE,53,8.2,21.0,100,0.01,CLR,,0.49,WeatherDisplay:10.37,2013-02-27 17:58:00,
2013-02-27 13:03:00,40.3,40.3,29.77,NE,46,11.5,20.7,100,0.02,RA,,0.49,WeatherDisplay:10.37,2013-02-27 18:03:00,
2013-02-27 13:08:00,40.3,40.3,29.77,East,95,10.1,15.0,100,0.02,,,0.49,WeatherDisplay:10.37,2013-02-27 18:08:00,
2013-02-27 13:13:00,40.2,40.2,29.78,ENE,66,10.3,15.0,100,0.02,CLR,,0.49,WeatherDisplay:10.37,2013-02-27 18:13:00,
2013-02-27 13:18:00,40.2,40.2,29.77,ENE,59,9.8,17.3,100,0.03,RA,,0.50,WeatherDisplay:10.37,2013-02-27 18:18:00,
2013-02-27 13:23:00,40.2,40.2,29.76,ENE,75,7.2,26.5,100,0.03,RA,,0.50,WeatherDisplay:10.37,2013-02-27 18:23:00,
2013-02-27 13:29:00,40.2,40.2,29.77,East,97,8.6,21.0,100,0.03,RA,,0.51,WeatherDisplay:10.37,2013-02-27 18:29:00,
2013-02-27 13:34:00,40.1,40.1,29.77,East,92,12.2,26.5,100,0.03,RA,,0.52,WeatherDisplay:10.37,2013-02-27 18:34:00,
2013-02-27 13:39:00,40.0,40.0,29.77,East,96,7.5,18.4,100,0.04,RA,,0.52,WeatherDisplay:10.37,2013-02-27 18:39:00,
2013-02-27 13:44:00,40.0,40.0,29.76,ENE,64,5.0,11.5,100,0.05,RA,,0.53,WeatherDisplay:10.37,2013-02-27 18:44:00,
2013-02-27 13:49:00,39.9,39.9,29.76,ENE,74,9.9,14.0,100,0.06,RA,,0.54,WeatherDisplay:10.37,2013-02-27 18:49:00,
2013-02-27 13:55:00,39.8,39.8,29.75,NE,42,8.2,17.3,100,0.06,RA,,0.54,WeatherDisplay:10.37,2013-02-27 18:55:00,
2013-02-27 14:00:00,39.8,39.8,29.76,ESE,114,8.8,17.0,100,0.06,RA,,0.55,WeatherDisplay:10.37,2013-02-27 19:00:00,
2013-02-27 14:05:00,39.7,39.7,29.75,ENE,77,6.0,21.0,100,0.00,RA,RA,0.56,WeatherDisplay:10.37,2013-02-27 19:05:00,
2013-02-27 14:10:00,39.7,39.7,29.75,ENE,71,6.0,17.0,100,0.00,RA,RA,0.57,WeatherDisplay:10.37,2013-02-27 19:10:00,
2013-02-27 14:15:00,39.5,39.5,29.75,East,80,7.0,28.0,100,0.00,RA,RA,0.57,WeatherDisplay:10.37,2013-02-27 19:15:00,
2013-02-27 14:20:00,39.4,39.4,29.75,ENE,78,9.0,20.0,100,0.00,RA,RA,0.58,WeatherDisplay:10.37,2013-02-27 19:20:00,
2013-02-27 14:25:00,39.2,39.2,29.75,ENE,69,6.0,22.0,100,0.01,RA,RA,0.59,WeatherDisplay:10.37,2013-02-27 19:25:00,
2013-02-27 14:30:00,39.0,39.0,29.75,NE,55,7.0,15.0,100,0.09,RA,,0.60,WeatherDisplay:10.37,2013-02-27 19:30:00,
2013-02-27 14:35:00,39.0,39.0,29.75,ENE,66,8.7,15.0,100,0.08,RA,,0.60,WeatherDisplay:10.37,2013-02-27 19:35:00,
2013-02-27 14:40:00,39.0,39.0,29.75,ESE,113,8.5,13.8,100,0.10,RA,,0.62,WeatherDisplay:10.37,2013-02-27 19:40:00,
2013-02-27 14:46:00,39.0,39.0,29.75,ESE,106,7.3,16.1,100,0.09,RA,,0.62,WeatherDisplay:10.37,2013-02-27 19:46:00,
2013-02-27 14:51:00,38.9,38.9,29.74,ENE,57,6.4,20.7,100,0.09,RA,,0.63,WeatherDisplay:10.37,2013-02-27 19:51:00,
2013-02-27 14:56:00,38.7,38.7,29.75,ESE,107,4.2,6.9,100,0.09,RA,,0.64,WeatherDisplay:10.37,2013-02-27 19:56:00,
2013-02-27 15:01:00,38.7,38.7,29.74,ENE,76,7.3,11.5,100,0.10,RA,,0.65,WeatherDisplay:10.37,2013-02-27 20:01:00,
2013-02-27 15:07:00,38.7,38.7,29.74,NE,41,7.4,11.5,100,0.10,RA,,0.66,WeatherDisplay:10.37,2013-02-27 20:07:00,
2013-02-27 15:12:00,38.6,38.6,29.73,ENE,70,11.1,18.4,100,0.09,RA,,0.66,WeatherDisplay:10.37,2013-02-27 20:12:00,
2013-02-27 15:17:00,38.5,38.5,29.74,ENE,74,3.8,15.0,100,0.09,,,0.66,WeatherDisplay:10.37,2013-02-27 20:17:00,
2013-02-27 15:22:00,38.4,38.4,29.73,ENE,60,7.6,12.0,100,0.09,RA,,0.67,WeatherDisplay:10.37,2013-02-27 20:22:00,
2013-02-27 15:27:00,38.4,38.4,29.74,East,98,3.3,11.5,100,0.08,RA,,0.68,WeatherDisplay:10.37,2013-02-27 20:27:00,
2013-02-27 15:32:00,38.4,38.4,29.74,East,86,6.1,18.4,100,0.09,RA,,0.69,WeatherDisplay:10.37,2013-02-27 20:32:00,
2013-02-27 15:38:00,38.3,38.3,29.74,NNE,25,3.5,9.2,100,0.11,RA,,0.72,WeatherDisplay:10.37,2013-02-27 20:38:00,
2013-02-27 15:43:00,38.1,38.1,29.74,NNE,33,7.8,11.5,100,0.12,RA,,0.74,WeatherDisplay:10.37,2013-02-27 20:43:00,
2013-02-27 15:48:00,38.0,38.0,29.72,ENE,74,5.2,10.0,100,0.12,RA,,0.75,WeatherDisplay:10.37,2013-02-27 20:48:00,
2013-02-27 15:53:00,37.9,37.9,29.72,NNE,28,5.9,11.5,100,0.13,RA,,0.77,WeatherDisplay:10.37,2013-02-27 20:53:00,
2013-02-27 15:59:00,37.7,37.7,29.71,NE,39,4.4,15.0,100,0.14,RA,,0.79,WeatherDisplay:10.37,2013-02-27 20:59:00,
2013-02-27 16:04:00,37.7,37.7,29.71,NE,37,3.8,11.5,100,0.17,RA,,0.82,WeatherDisplay:10.37,2013-02-27 21:04:00,
2013-02-27 16:09:00,37.9,37.9,29.71,ENE,66,5.2,11.5,100,0.17,RA,,0.83,WeatherDisplay:10.37,2013-02-27 21:09:00,
2013-02-27 16:15:00,37.9,37.9,29.71,ENE,69,4.0,9.0,100,0.18,RA,,0.84,WeatherDisplay:10.37,2013-02-27 21:15:00,
2013-02-27 16:20:00,37.9,37.9,29.71,NE,51,5.0,12.0,100,0.00,RA,RA,0.85,WeatherDisplay:10.37,2013-02-27 21:20:00,
2013-02-27 16:25:00,37.9,37.9,29.71,NE,51,7.0,20.0,100,0.00,RA,RA,0.86,WeatherDisplay:10.37,2013-02-27 21:25:00,
2013-02-27 16:30:00,38.0,38.0,29.70,NE,49,8.0,20.0,100,0.00,RA,RA,0.87,WeatherDisplay:10.37,2013-02-27 21:30:00,
2013-02-27 16:35:00,37.9,37.9,29.71,ENE,68,5.6,15.0,100,0.18,RA,,0.88,WeatherDisplay:10.37,2013-02-27 21:35:00,
2013-02-27 16:40:00,38.0,38.0,29.70,NE,36,6.6,12.7,100,0.16,RA,,0.89,WeatherDisplay:10.37,2013-02-27 21:40:00,
2013-02-27 16:45:00,37.9,37.9,29.70,NE,51,4.4,11.5,100,0.16,RA,,0.90,WeatherDisplay:10.37,2013-02-27 21:45:00,
2013-02-27 16:51:00,37.9,37.9,29.70,NNE,19,10.3,19.0,100,0.15,RA,,0.91,WeatherDisplay:10.37,2013-02-27 21:51:00,
2013-02-27 16:56:00,37.9,37.9,29.69,NE,45,4.4,16.1,100,0.14,RA,,0.92,WeatherDisplay:10.37,2013-02-27 21:56:00,
2013-02-27 17:01:00,37.9,37.9,29.69,NNE,23,7.2,16.1,100,0.12,RA,,0.92,WeatherDisplay:10.37,2013-02-27 22:01:00,
2013-02-27 17:06:00,38.0,38.0,29.69,NE,53,6.4,11.5,100,0.10,CLR,,0.93,WeatherDisplay:10.37,2013-02-27 22:06:00,
2013-02-27 17:11:00,38.0,38.0,29.68,ENE,65,6.6,15.0,100,0.09,RA,,0.93,WeatherDisplay:10.37,2013-02-27 22:11:00,
2013-02-27 17:17:00,38.1,38.1,29.68,NNE,29,9.0,15.0,100,0.10,RA,,0.94,WeatherDisplay:10.37,2013-02-27 22:17:00,
2013-02-27 17:22:00,38.1,38.1,29.68,NE,55,4.6,9.2,100,0.09,RA,,0.94,WeatherDisplay:10.37,2013-02-27 22:22:00,
2013-02-27 17:28:00,38.1,38.1,29.68,NE,54,5.8,11.5,100,0.09,RA,,0.95,WeatherDisplay:10.37,2013-02-27 22:28:00,
2013-02-27 17:33:00,38.2,38.2,29.68,NNE,12,8.5,17.3,100,0.07,RA,,0.95,WeatherDisplay:10.37,2013-02-27 22:33:00,
2013-02-27 17:38:00,38.2,38.2,29.67,NE,48,4.7,7.0,100,0.08,RA,,0.96,WeatherDisplay:10.37,2013-02-27 22:38:00,
2013-02-27 17:43:00,38.2,38.2,29.67,North,5,6.8,11.5,100,0.07,RA,,0.96,WeatherDisplay:10.37,2013-02-27 22:43:00,
2013-02-27 17:49:00,38.2,38.2,29.67,ENE,78,4.0,19.6,100,0.06,CLR,,0.96,WeatherDisplay:10.37,2013-02-27 22:49:00,
2013-02-27 17:54:00,38.3,38.3,29.67,East,83,5.1,23.0,100,0.04,CLR,,0.97,WeatherDisplay:10.37,2013-02-27 22:54:00,
2013-02-27 17:59:00,38.3,38.3,29.67,NE,51,6.3,13.8,100,0.05,RA,,0.97,WeatherDisplay:10.37,2013-02-27 22:59:00,
2013-02-27 18:04:00,38.3,38.3,29.67,NNE,14,7.1,15.0,100,0.06,RA,,0.98,WeatherDisplay:10.37,2013-02-27 23:04:00,
2013-02-27 18:10:00,38.3,38.3,29.67,NE,49,3.9,9.2,100,0.06,RA,,0.99,WeatherDisplay:10.37,2013-02-27 23:10:00,
2013-02-27 18:15:00,38.4,38.4,29.67,NE,46,6.0,20.0,100,0.01,RA,RA,1.00,WeatherDisplay:10.37,2013-02-27 23:15:00,
2013-02-27 18:20:00,38.4,38.4,29.67,East,97,3.3,12.7,100,0.06,RA,,1.00,WeatherDisplay:10.37,2013-02-27 23:20:00,
2013-02-27 18:25:00,38.4,38.4,29.67,NE,40,8.0,18.0,100,0.00,RA,RA,1.01,WeatherDisplay:10.37,2013-02-27 23:25:00,
2013-02-27 18:30:00,38.5,38.5,29.67,NE,38,6.0,21.0,100,0.01,RA,RA,1.02,WeatherDisplay:10.37,2013-02-27 23:30:00,
2013-02-27 18:35:00,38.5,38.5,29.67,East,96,5.2,12.7,100,0.06,RA,,1.02,WeatherDisplay:10.37,2013-02-27 23:35:00,
2013-02-27 18:40:00,38.5,38.5,29.66,NE,40,8.1,12.7,100,0.06,,,1.03,WeatherDisplay:10.37,2013-02-27 23:40:00,
2013-02-27 18:45:00,38.6,38.6,29.66,NE,48,6.8,11.5,100,0.07,RA,,1.03,WeatherDisplay:10.37,2013-02-27 23:45:00,
2013-02-27 18:51:00,38.6,38.6,29.66,ENE,60,3.2,10.4,100,0.08,RA,,1.04,WeatherDisplay:10.37,2013-02-27 23:51:00,
2013-02-27 18:56:00,38.6,38.6,29.65,NE,43,6.6,13.8,100,0.08,RA,,1.05,WeatherDisplay:10.37,2013-02-27 23:56:00,
2013-02-27 19:01:00,38.7,38.7,29.65,NNE,17,9.1,19.6,100,0.07,RA,,1.05,WeatherDisplay:10.37,2013-02-28 00:01:00,
2013-02-27 19:06:00,38.8,38.8,29.64,NNE,12,4.2,13.8,100,0.08,RA,,1.06,WeatherDisplay:10.37,2013-02-28 00:06:00,
2013-02-27 19:12:00,38.7,38.7,29.64,NNE,20,4.4,11.5,100,0.07,RA,,1.06,WeatherDisplay:10.37,2013-02-28 00:12:00,
2013-02-27 19:17:00,38.7,38.7,29.63,NE,40,9.1,15.0,100,0.06,,,1.06,WeatherDisplay:10.37,2013-02-28 00:17:00,
2013-02-27 19:22:00,38.7,38.7,29.63,NNE,25,7.8,11.5,100,0.06,CLR,,1.06,WeatherDisplay:10.37,2013-02-28 00:22:00,
2013-02-27 19:28:00,38.7,38.7,29.62,NNE,32,6.1,11.5,100,0.05,CLR,,1.07,WeatherDisplay:10.37,2013-02-28 00:28:00,
2013-02-27 19:33:00,38.8,38.8,29.62,NE,44,5.9,11.5,100,0.05,RA,,1.07,WeatherDisplay:10.37,2013-02-28 00:33:00,
2013-02-27 19:38:00,38.8,38.8,29.62,NNE,28,7.7,17.3,100,0.05,,,1.07,WeatherDisplay:10.37,2013-02-28 00:38:00,
2013-02-27 19:43:00,38.9,38.9,29.61,North,3,8.3,19.0,100,0.05,RA,,1.08,WeatherDisplay:10.37,2013-02-28 00:43:00,
2013-02-27 19:48:00,38.9,38.9,29.61,NE,38,3.7,6.9,100,0.04,RA,,1.08,WeatherDisplay:10.37,2013-02-28 00:48:00,
2013-02-27 19:54:00,38.9,38.9,29.61,NNE,13,9.6,21.9,100,0.04,CLR,,1.08,WeatherDisplay:10.37,2013-02-28 00:54:00,
2013-02-27 19:59:00,39.0,39.0,29.61,North,0,5.5,11.5,100,0.03,CLR,,1.08,WeatherDisplay:10.37,2013-02-28 00:59:00,
2013-02-27 20:04:00,39.1,39.1,29.61,NNE,14,3.2,5.0,100,0.03,CLR,,1.08,WeatherDisplay:10.37,2013-02-28 01:04:00,
2013-02-27 20:09:00,39.1,39.1,29.61,North,4,4.3,6.9,100,0.03,RA,,1.09,WeatherDisplay:10.37,2013-02-28 01:09:00,
2013-02-27 20:15:00,39.2,39.2,29.60,NNE,29,4.2,7.0,100,0.03,RA,,1.09,WeatherDisplay:10.37,2013-02-28 01:15:00,
2013-02-27 20:20:00,39.2,39.2,29.60,NNE,24,7.0,13.0,100,0.00,RA,RA,1.10,WeatherDisplay:10.37,2013-02-28 01:20:00,
2013-02-27 20:25:00,39.3,39.3,29.60,NNE,27,6.0,12.0,100,0.00,RA,RA,1.10,WeatherDisplay:10.37,2013-02-28 01:25:00,
2013-02-27 20:30:00,39.3,39.3,29.60,NNE,28,8.0,12.0,100,0.00,CLR,CLR,1.10,WeatherDisplay:10.37,2013-02-28 01:30:00,
2013-02-27 20:35:00,39.4,39.4,29.59,NNE,26,8.0,12.0,100,0.00,RA,RA,1.11,WeatherDisplay:10.37,2013-02-28 01:35:00,
2013-02-27 20:40:00,39.4,39.4,29.59,NNE,23,3.0,8.0,100,0.00,RA,RA,1.11,WeatherDisplay:10.37,2013-02-28 01:40:00,
2013-02-27 20:45:00,39.4,39.4,29.59,NNE,26,6.0,8.0,100,0.00,RA,RA,1.12,WeatherDisplay:10.37,2013-02-28 01:45:00,
2013-02-27 20:50:00,39.5,39.5,29.59,NNE,26,5.0,9.0,100,0.00,RA,RA,1.12,WeatherDisplay:10.37,2013-02-28 01:50:00,
2013-02-27 20:55:00,39.5,39.5,29.58,NNE,16,3.6,8.1,100,0.04,CLR,,1.12,WeatherDisplay:10.37,2013-02-28 01:55:00,
2013-02-27 21:00:00,39.5,39.5,29.58,North,3,3.7,5.8,100,0.05,RA,,1.13,WeatherDisplay:10.37,2013-02-28 02:00:00,
2013-02-27 21:05:00,39.5,39.5,29.58,North,5,4.7,9.0,100,0.05,RA,,1.13,WeatherDisplay:10.37,2013-02-28 02:05:00,
2013-02-27 21:10:00,39.6,39.6,29.58,NE,40,4.7,6.9,100,0.05,RA,,1.14,WeatherDisplay:10.37,2013-02-28 02:10:00,
2013-02-27 21:16:00,39.6,39.6,29.58,ENE,57,3.6,7.0,100,0.05,RA,,1.14,WeatherDisplay:10.37,2013-02-28 02:16:00,
2013-02-27 21:21:00,39.6,39.6,29.58,NNE,15,3.8,6.9,100,0.04,CLR,,1.14,WeatherDisplay:10.37,2013-02-28 02:21:00,
2013-02-27 21:26:00,39.6,39.6,29.57,NE,40,2.0,6.9,100,0.04,CLR,,1.14,WeatherDisplay:10.37,2013-02-28 02:26:00,
2013-02-27 21:31:00,39.6,39.6,29.57,NE,38,4.0,8.0,100,0.05,RA,,1.15,WeatherDisplay:10.37,2013-02-28 02:31:00,
2013-02-27 21:37:00,39.6,39.6,29.57,North,9,3.5,6.0,100,0.04,RA,,1.15,WeatherDisplay:10.37,2013-02-28 02:37:00,
2013-02-27 21:42:00,39.6,39.6,29.56,North,0,5.1,8.1,100,0.03,CLR,,1.15,WeatherDisplay:10.37,2013-02-28 02:42:00,
2013-02-27 21:47:00,39.6,39.6,29.55,North,4,4.6,6.9,100,0.03,CLR,,1.15,WeatherDisplay:10.37,2013-02-28 02:47:00,
2013-02-27 21:52:00,39.6,39.6,29.55,NE,41,2.2,6.9,100,0.03,CLR,,1.15,WeatherDisplay:10.37,2013-02-28 02:52:00,
2013-02-27 21:58:00,39.6,39.6,29.55,North,2,4.4,11.5,100,0.03,RA,,1.16,WeatherDisplay:10.37,2013-02-28 02:58:00,
2013-02-27 22:03:00,39.7,39.7,29.55,North,3,3.6,10.0,100,0.03,RA,,1.16,WeatherDisplay:10.37,2013-02-28 03:03:00,
2013-02-27 22:08:00,39.7,39.7,29.55,North,9,2.7,5.8,100,0.02,,,1.16,WeatherDisplay:10.37,2013-02-28 03:08:00,
2013-02-27 22:13:00,39.7,39.7,29.54,North,0,4.8,8.1,100,0.02,CLR,,1.16,WeatherDisplay:10.37,2013-02-28 03:13:00,
2013-02-27 22:18:00,39.7,39.7,29.55,NNE,25,4.0,6.0,100,0.02,CLR,,1.16,WeatherDisplay:10.37,2013-02-28 03:18:00,
2013-02-27 22:24:00,39.8,39.8,29.55,North,11,2.5,6.9,100,0.02,CLR,,1.16,WeatherDisplay:10.37,2013-02-28 03:24:00,
2013-02-27 22:29:00,39.8,39.8,29.55,NW,326,4.1,6.9,100,0.01,CLR,,1.16,WeatherDisplay:10.37,2013-02-28 03:29:00,
2013-02-27 22:34:00,39.8,39.8,29.55,NNW,345,2.4,3.5,100,0.01,CLR,,1.16,WeatherDisplay:10.37,2013-02-28 03:34:00,
2013-02-27 22:39:00,39.8,39.8,29.54,NNE,24,2.4,4.6,100,0.01,CLR,,1.16,WeatherDisplay:10.37,2013-02-28 03:39:00,
2013-02-27 22:44:00,39.8,39.8,29.54,NNE,24,1.7,3.5,100,0.01,CLR,,1.16,WeatherDisplay:10.37,2013-02-28 03:44:00,
2013-02-27 22:50:00,39.9,39.9,29.54,NW,314,1.4,3.5,100,0.01,CLR,,1.16,WeatherDisplay:10.37,2013-02-28 03:50:00,
2013-02-27 22:55:00,39.9,39.9,29.54,North,356,1.0,5.0,100,0.00,CLR,CLR,1.16,WeatherDisplay:10.37,2013-02-28 03:55:00,
2013-02-27 23:00:00,39.8,39.8,29.54,North,358,2.0,4.0,100,0.00,,,1.16,WeatherDisplay:10.37,2013-02-28 04:00:00,
2013-02-27 23:05:00,39.8,39.8,29.54,North,354,2.0,4.0,100,0.00,,,1.16,WeatherDisplay:10.37,2013-02-28 04:05:00,
2013-02-27 23:10:00,39.8,39.8,29.54,West,270,3.0,6.0,100,0.00,,,1.16,WeatherDisplay:10.37,2013-02-28 04:10:00,
2013-02-27 23:15:00,39.8,39.8,29.54,WSW,250,2.0,6.0,100,0.00,,,1.16,WeatherDisplay:10.37,2013-02-28 04:15:00,
2013-02-27 23:20:00,39.8,39.8,29.54,West,271,2.0,4.0,100,0.00,,,1.16,WeatherDisplay:10.37,2013-02-28 04:20:00,
2013-02-27 23:25:00,39.8,39.8,29.54,NW,306,2.0,5.0,100,0.00,,,1.16,WeatherDisplay:10.37,2013-02-28 04:25:00,
2013-02-27 23:30:00,39.8,39.8,29.54,WNW,296,2.0,4.0,100,0.00,,,1.16,WeatherDisplay:10.37,2013-02-28 04:30:00,
2013-02-27 23:35:00,39.8,39.8,29.55,West,274,4.1,6.9,100,0.00,,,1.16,WeatherDisplay:10.37,2013-02-28 04:35:00,
2013-02-27 23:40:00,39.7,39.7,29.55,West,267,3.0,6.0,100,0.00,,,1.16,WeatherDisplay:10.37,2013-02-28 04:40:00,
2013-02-27 23:45:00,39.7,39.7,29.55,West,267,2.0,8.0,100,0.00,,,1.16,WeatherDisplay:10.37,2013-02-28 04:45:00,
2013-02-27 23:50:00,39.6,39.6,29.55,West,273,2.0,7.0,100,0.00,,,1.16,WeatherDisplay:10.37,2013-02-28 04:50:00,
2013-02-27 23:55:00,39.5,39.5,29.55,WSW,245,3.5,5.8,100,0.00,,,1.16,WeatherDisplay:10.37,2013-02-28 04:55:00,